Location: L�Ave Maria
(50.7161°N, 1.5911°E)
Time: 13:20:57
(UTC+00:00)

Cosmos 1340 - Pass Details

Date: 10 July 2020
Orbit: 502 x 504 km, 81.2° (Epoch: 07 August)

Event Time Altitude Azimuth Distance (km) Brightness Sun altitude
Exits shadow 23:34:46 24° 228° (SW) 1,084 4.0 -17.0°
Maximum altitude 23:36:39 44° 287° (WNW) 712 3.5 -17.0°
Drops below altitude 10° 23:40:17 10° 1° (N) 1,726 6.7 -17.1°
Sets 23:42:30 0° 8° (N) 2,616 7.9 -17.1°
